This is the latest recevied weather packets stored in our database for station/object K3RUP-1. If no packets are shown the sender has not sent any weather packets the latest 10 day(s).
| Time | Temp. | Humidity | Pressure | Rain* | Wind** | Luminosity | Snow |
|---|---|---|---|---|---|---|---|
| 1777757188 | 15.56° C | 40% | 1010.8 hPa | 0 mm | - | 84 W/m² | - |
| 1777756885 | 15.56° C | 42% | 1010.7 hPa | 0 mm | - | 84 W/m² | - |
| 1777756580 | 15.56° C | 42% | 1010.9 hPa | 0 mm | - | 95 W/m² | - |
| 1777756272 | 15.56° C | 41% | 1010.7 hPa | 0 mm | - | 95 W/m² | - |
| 1777755970 | 15.56° C | 43% | 1010.8 hPa | 0 mm | - | 95 W/m² | - |
| 1777755666 | 15.56° C | 44% | 1010.4 hPa | 0 mm | - | 104 W/m² | - |
| 1777755363 | 15.56° C | 41% | 1010.5 hPa | 0 mm | - | 109 W/m² | - |
| 1777755060 | 15.56° C | 40% | 1010.5 hPa | 0 mm | - | 141 W/m² | - |
| 1777754756 | 15.56° C | 41% | 1010.4 hPa | 0 mm | - | 122 W/m² | - |
| 1777754454 | 15.56° C | 40% | 1010.5 hPa | 0 mm | - | 135 W/m² | - |
| 1777754151 | 15.56° C | 39% | 1010.7 hPa | 0 mm | - | 219 W/m² | - |
| 1777753848 | 15.56° C | 42% | 1010.3 hPa | 0 mm | - | 174 W/m² | - |
| 1777753544 | 15.56° C | 40% | 1010.5 hPa | 0 mm | - | 129 W/m² | - |
| 1777753243 | 16.11° C | 39% | 1010.3 hPa | 0 mm | - | 163 W/m² | - |
| 1777752938 | 16.11° C | 38% | 1010.8 hPa | 0 mm | - | 366 W/m² | - |
| 1777752635 | 15.56° C | 39% | 1010.7 hPa | 0 mm | - | 165 W/m² | - |
| 1777752331 | 15.56° C | 41% | 1010.6 hPa | 0 mm | - | 583 W/m² | - |
| 1777752029 | 15.56° C | 41% | 1010.8 hPa | 0 mm | - | 197 W/m² | - |
| 1777751726 | 15.56° C | 42% | 1010.6 hPa | 0 mm | - | 173 W/m² | - |
| 1777751422 | 15.56° C | 42% | 1011 hPa | 0 mm | - | 138 W/m² | - |
| 1777751119 | 16.11° C | 40% | 1010.9 hPa | 0 mm | - | 164 W/m² | - |
| 1777750815 | 16.11° C | 43% | 1011 hPa | 0 mm | - | 153 W/m² | - |
| 1777750513 | 15.56° C | 43% | 1010.9 hPa | 0 mm | - | 589 W/m² | - |
| 1777750209 | 15.56° C | 42% | 1011.1 hPa | 0 mm | - | 327 W/m² | - |
| 1777749904 | 15.56° C | 45% | 1011.5 hPa | 0 mm | - | 205 W/m² | - |
* Rain latest hour (hover to see other rain measurements)
** Current wind speed in m/s (hover to see current wind gust speed)